Shawano, WI

4:51 AM CDT on August 25, 2016 (GMT -0500)
Shawano

Weather History for KEZS - November, 2012

Change the Weather History Date:

Tuesday, November 6, 2012

  Actual Average (KGRB) Record (KGRB)
Temperature  
Mean Temperature 32 °F 39 °F  
Max Temperature 37 °F 47 °F 68 °F (1975)
Min Temperature 26 °F 31 °F -5 °F (1951)
Degree Days  
Heating Degree Days 34 26  
Month to date heating degree days 149  
Since 1 July heating degree days 975  
Cooling Degree Days 0 0  
Month to date cooling degree days 0  
Year to date cooling degree days 398  
Moisture  
Dew Point 32 °F    
Average Humidity 90    
Maximum Humidity 100    
Minimum Humidity 81    
Precipitation  
Precipitation 0.00 in 0.07 in 0.60 in (2013)
Month to date precipitation 0.44  
Year to date precipitation 26.32  
Snow  
Snow 0.00 in 0.10 in 4.60 in (1988)
Month to date snowfall 0.3  
Since 1 July snowfall 0.5  
Since 1 September snowfall 0.5  
Snow Depth -    
Sea Level Pressure  
Sea Level Pressure 29.93 in    
Wind  
Wind Speed 2 mph (South)    
Max Wind Speed 7 mph    
Max Gust Speed -    
Visibility 6 miles    
Events Rain , Snow    
T = Trace of Precipitation, MM = Missing Value Source: NWS Daily Summary

Daily Weather History Graph

Daily Weather History Graph

Search for Another Location

Airport or City:

Trip Planner

Search our weather history database for the weather conditions in past years. The results will help you decide how hot, cold, wet, or windy it might be!

Date:

Astronomy

Nov. 06, 2012 Rise Set
Actual Time 6:39 AM CST 4:35 PM CST
Civil Twilight 6:08 AM CST 5:06 PM CST
Nautical Twilight 5:33 AM CST 5:41 PM CST
Astronomical Twilight 4:59 AM CST 6:15 PM CST
Moon 11:17 PM CST (11/6) 12:29 PM CST (11/6)
Length of Visible Light 10h 57m
Length of Day
9h 55m
Waning Gibbous, 53% of the Moon is Illuminated
Nov 6
Waning Gibbous
Nov 6
Last Quarter
Nov 13
New
Nov 20
First Quarter
Nov 28
Full

Hourly Weather History & Observations

Time (CST) Temp. Windchill Dew Point Humidity Pressure Visibility Wind Dir Wind Speed Gust Speed Precip Events Conditions
12:15 AM 28.4 °F - 24.8 °F 86% 30.09 in 7.0 mi Calm Calm - N/A   Clear
12:35 AM 28.4 °F - 24.8 °F 86% 30.08 in 10.0 mi Calm Calm - N/A   Clear
12:55 AM 28.4 °F - 24.8 °F 86% 30.08 in 10.0 mi Calm Calm - N/A   Clear
1:15 AM 28.4 °F - 24.8 °F 86% 30.08 in 10.0 mi Calm Calm - N/A   Clear
1:35 AM 26.6 °F - 24.8 °F 93% 30.07 in 7.0 mi Calm Calm - N/A   Clear
1:55 AM 26.6 °F - 23.0 °F 86% 30.06 in 7.0 mi Calm Calm - N/A   Clear
2:15 AM 28.4 °F 24.6 °F 26.6 °F 93% 30.04 in 10.0 mi South 3.5 mph - N/A   Scattered Clouds
2:35 AM 30.2 °F 25.4 °F 26.6 °F 86% 30.03 in 10.0 mi South 4.6 mph - N/A   Overcast
2:55 AM 30.2 °F 26.7 °F 28.4 °F 93% 30.02 in 10.0 mi South 3.5 mph - N/A   Overcast
3:15 AM 32.0 °F - 28.4 °F 87% 30.02 in 10.0 mi Calm Calm - N/A   Overcast
3:35 AM 32.0 °F - 28.4 °F 87% 30.01 in 10.0 mi Calm Calm - N/A   Overcast
3:55 AM 32.0 °F - 28.4 °F 87% 30.00 in 10.0 mi Calm Calm - N/A   Overcast
4:15 AM 32.0 °F - 28.4 °F 87% 30.00 in 10.0 mi Calm Calm - N/A   Overcast
4:35 AM 32.0 °F - 28.4 °F 87% 30.00 in 10.0 mi Calm Calm - N/A   Overcast
4:55 AM 32.0 °F - 28.4 °F 87% 29.99 in 10.0 mi Calm Calm - N/A   Overcast
5:15 AM 32.0 °F 28.7 °F 28.4 °F 87% 29.98 in 10.0 mi South 3.5 mph - N/A   Overcast
5:35 AM 32.0 °F 28.7 °F 28.4 °F 87% 29.97 in 10.0 mi SSE 3.5 mph - N/A   Overcast
5:55 AM 32.0 °F 28.7 °F 28.4 °F 87% 29.96 in 10.0 mi South 3.5 mph - N/A   Overcast
6:15 AM 32.0 °F 27.5 °F 30.2 °F 93% 29.96 in 10.0 mi South 4.6 mph - N/A   Overcast
6:35 AM 32.0 °F 27.5 °F 30.2 °F 93% 29.96 in 10.0 mi South 4.6 mph - N/A   Overcast
6:55 AM 33.8 °F 27.7 °F 30.2 °F 87% 29.96 in 10.0 mi South 6.9 mph - N/A   Overcast
7:15 AM 33.8 °F 28.6 °F 30.2 °F 87% 29.96 in 10.0 mi South 5.8 mph - N/A   Overcast
7:35 AM 33.8 °F 29.6 °F 30.2 °F 87% 29.96 in 10.0 mi South 4.6 mph - N/A   Overcast
7:55 AM 33.8 °F 27.7 °F 30.2 °F 87% 29.96 in 10.0 mi South 6.9 mph - N/A   Overcast
8:15 AM 35.6 °F 31.7 °F 30.2 °F 81% 29.95 in 10.0 mi South 4.6 mph - N/A   Mostly Cloudy
8:35 AM 35.6 °F 30.7 °F 30.2 °F 81% 29.94 in 10.0 mi South 5.8 mph - N/A   Overcast
8:55 AM 35.6 °F 31.7 °F 30.2 °F 81% 29.94 in 7.0 mi South 4.6 mph - N/A Rain Light Rain
9:15 AM 35.6 °F 29.9 °F 32.0 °F 87% 29.94 in 3.0 mi SSW 6.9 mph - N/A Snow Light Snow
9:35 AM 33.8 °F 29.6 °F 32.0 °F 93% 29.94 in 2.0 mi South 4.6 mph - N/A   Overcast
9:55 AM 35.6 °F 30.7 °F 32.0 °F 87% 29.93 in 2.5 mi South 5.8 mph - N/A Snow Light Snow
10:15 AM 35.6 °F 32.8 °F 32.0 °F 87% 29.93 in 3.0 mi South 3.5 mph - N/A   Overcast
10:35 AM 35.6 °F 29.9 °F 33.8 °F 93% 29.93 in 4.0 mi South 6.9 mph - N/A Rain Light Rain
10:55 AM 35.6 °F 32.8 °F 33.8 °F 93% 29.92 in 4.0 mi South 3.5 mph - N/A Rain Light Rain
11:15 AM 35.6 °F 31.7 °F 33.8 °F 93% 29.91 in 4.0 mi SSE 4.6 mph - N/A Rain Light Rain
11:35 AM 37.4 °F 32.8 °F 33.8 °F 87% 29.91 in 5.0 mi South 5.8 mph - N/A Rain Rain
11:55 AM 37.4 °F 33.8 °F 33.8 °F 87% 29.89 in 4.0 mi South 4.6 mph - N/A Rain Light Rain
12:15 PM 35.6 °F 31.7 °F 33.8 °F 93% 29.89 in 5.0 mi South 4.6 mph - N/A Rain Light Rain
12:35 PM 37.4 °F 33.8 °F 33.8 °F 87% 29.88 in 5.0 mi SSE 4.6 mph - N/A   Light Drizzle
12:55 PM 37.4 °F 32.1 °F 33.8 °F 87% 29.87 in 5.0 mi South 6.9 mph - N/A Rain Light Rain
1:15 PM 37.4 °F 32.8 °F 33.8 °F 87% 29.87 in 5.0 mi South 5.8 mph - N/A   Overcast
1:35 PM 37.4 °F 33.8 °F 33.8 °F 87% 29.86 in 5.0 mi SSE 4.6 mph - N/A   Overcast
1:55 PM 37.4 °F 32.1 °F 33.8 °F 87% 29.86 in 5.0 mi SSE 6.9 mph - N/A   Light Drizzle
2:15 PM 37.4 °F 33.8 °F 33.8 °F 87% 29.86 in 4.0 mi SSE 4.6 mph - N/A Rain Light Rain
2:35 PM 37.4 °F 33.8 °F 33.8 °F 87% 29.86 in 5.0 mi SSE 4.6 mph - N/A   Light Drizzle
2:55 PM 37.4 °F 32.8 °F 33.8 °F 87% 29.85 in 4.0 mi SSE 5.8 mph - N/A   Light Drizzle
3:15 PM 37.4 °F 32.8 °F 33.8 °F 87% 29.86 in 5.0 mi SSE 5.8 mph - N/A   Overcast
3:35 PM 37.4 °F 32.8 °F 33.8 °F 87% 29.85 in 5.0 mi SSE 5.8 mph - N/A   Overcast
3:55 PM 37.4 °F 34.9 °F 33.8 °F 87% 29.86 in 5.0 mi SSE 3.5 mph - N/A   Light Drizzle
4:15 PM 37.4 °F 33.8 °F 33.8 °F 87% 29.86 in 4.0 mi SSE 4.6 mph - N/A Rain Light Rain
4:35 PM 37.4 °F 33.8 °F 33.8 °F 87% 29.86 in 3.0 mi SSE 4.6 mph - N/A   Drizzle
4:55 PM 37.4 °F 34.9 °F 35.6 °F 93% 29.87 in 2.5 mi SSE 3.5 mph - N/A   Drizzle
5:35 PM 37.4 °F - 35.6 °F 93% 29.88 in 2.0 mi Calm Calm - N/A   Drizzle
5:55 PM 37.4 °F - 35.6 °F 93% 29.88 in 2.0 mi Calm Calm - N/A   Drizzle
6:15 PM 37.4 °F - 35.6 °F 93% 29.88 in 2.0 mi Calm Calm - N/A   Drizzle
6:35 PM 37.4 °F - 35.6 °F 93% 29.89 in 2.0 mi Calm Calm - N/A   Drizzle
6:55 PM 37.4 °F 34.9 °F 35.6 °F 93% 29.89 in 2.5 mi SE 3.5 mph - N/A   Light Drizzle
7:15 PM 37.4 °F - 35.6 °F 93% 29.89 in 2.0 mi Calm Calm - N/A   Light Drizzle
7:35 PM 37.4 °F - 35.6 °F 93% 29.89 in 2.0 mi Calm Calm - N/A   Light Drizzle
7:55 PM 37.4 °F 34.9 °F 35.6 °F 93% 29.89 in 2.5 mi SE 3.5 mph - N/A   Light Drizzle
8:15 PM 37.4 °F - 35.6 °F 93% 29.89 in 3.0 mi Calm Calm - N/A   Light Drizzle
8:35 PM 37.4 °F - 35.6 °F 93% 29.90 in 2.5 mi Calm Calm - N/A   Light Drizzle
8:55 PM 37.4 °F - 35.6 °F 93% 29.90 in 2.5 mi Calm Calm - N/A   Light Drizzle
9:15 PM 35.6 °F - 35.6 °F 100% 29.90 in 2.0 mi Calm Calm - N/A Rain Light Rain
9:35 PM 37.4 °F - 35.6 °F 93% 29.90 in 2.0 mi Calm Calm - N/A   Overcast
9:55 PM 37.4 °F - 35.6 °F 93% 29.91 in 2.0 mi Calm Calm - N/A   Overcast
10:15 PM 37.4 °F - 35.6 °F 93% 29.90 in 1.8 mi Calm Calm - N/A   Overcast
10:35 PM 37.4 °F - 35.6 °F 93% 29.90 in 1.8 mi Calm Calm - N/A   Overcast
10:55 PM 37.4 °F - 35.6 °F 93% 29.91 in 1.5 mi Calm Calm - N/A   Overcast
11:15 PM 35.6 °F - 35.6 °F 100% 29.91 in 1.5 mi Calm Calm - N/A   Overcast
11:35 PM 35.6 °F - 35.6 °F 100% 29.92 in 1.2 mi Calm Calm - N/A   Overcast
11:55 PM 37.4 °F - 35.6 °F 93% 29.92 in 1.2 mi Calm Calm - N/A   Overcast